Szeged, Hungary

1:28 PM CEST on April 25, 2017 (GMT +0200)
Szeged

Weather History for LHUD - July, 2013

Change the Weather History Date:

Thursday, July 11, 2013

  Actual Average (LRAR) Record (LRAR)
Temperature  
Mean Temperature 72 °F -  
Max Temperature 84 °F 81 °F 98 °F (2002)
Min Temperature 60 °F 58 °F 46 °F (2015)
Cooling Degree Days 7    
Growing Degree Days 22 (Base 50)    
Moisture  
Dew Point 61 °F    
Average Humidity 70    
Maximum Humidity 100    
Minimum Humidity 44    
Precipitation  
Precipitation 0.51 in 0.07 in - ()
Sea Level Pressure  
Sea Level Pressure 29.87 in    
Wind  
Wind Speed 5 mph ()    
Max Wind Speed 15 mph    
Max Gust Speed 22 mph    
Visibility 10.3 miles    
Events Rain , Thunderstorm    
Averages and records for this station are not official NWS values.
T = Trace of Precipitation, MM = Missing Value Source: Averaged Metar Reports

Daily Weather History Graph

Daily Weather History Graph

Search for Another Location

Airport or City:

Trip Planner

Search our weather history database for the weather conditions in past years. The results will help you decide how hot, cold, wet, or windy it might be!

Date:

Astronomy

Jul. 11, 2013 Rise Set
Actual Time 4:58 AM CEST 8:30 PM CEST
Civil Twilight 4:21 AM CEST 9:08 PM CEST
Nautical Twilight 3:31 AM CEST 9:58 PM CEST
Astronomical Twilight 2:24 AM CEST 11:03 PM CEST
Moon 8:12 AM CEST (7/11) 9:47 PM CEST (7/11)
Length of Visible Light 16h 47m
Length of Day
15h 31m
Waxing Crescent, 9% of the Moon is Illuminated
Jul 11
Waxing Crescent
Jul 16
First Quarter
Jul 22
Full
Jul 29
Last Quarter
Aug 6
New

Hourly Weather History & Observations

Time (CEST) Temp. Heat Index Dew Point Humidity Pressure Visibility Wind Dir Wind Speed Gust Speed Precip Events Conditions
12:00 AM 64 °F - 63 °F 94% 29.87 in 16 mi ENE 2.2 mph - -   Partly Cloudy
12:45 AM 62.6 °F - 62.6 °F 100% 29.86 in - South 2.3 mph - N/A   Clear
1:00 AM 63 °F - 62 °F 96% 29.86 in 16 mi South 2.2 mph - -   Partly Cloudy
1:45 AM 60.8 °F - 60.8 °F 100% 29.86 in - South 3.5 mph - N/A   Clear
2:00 AM 64 °F - 62 °F 90% 29.85 in 19 mi SSE 6.7 mph - -   Partly Cloudy
2:45 AM 62.6 °F - 60.8 °F 94% 29.86 in - SSE 5.8 mph - N/A   Clear
3:00 AM 72 °F - 64 °F 71% 29.85 in 19 mi South 4.5 mph - -   Partly Cloudy
3:45 AM 62.6 °F - 60.8 °F 94% 29.86 in - South 2.3 mph - N/A   Clear
4:00 AM 72 °F - 64 °F 71% 29.85 in 19 mi South 4.5 mph - -   Partly Cloudy
4:45 AM 62.6 °F - 60.8 °F 94% 29.86 in - SE 5.8 mph - N/A   Clear
5:00 AM 64 °F - 62 °F 90% 29.85 in 19 mi SSE 6.7 mph - -   Partly Cloudy
5:45 AM 62.6 °F - 60.8 °F 94% 29.86 in 6.2 mi SE 4.6 mph - N/A   Partly Cloudy
6:00 AM 62 °F - 61 °F 96% 29.84 in 16 mi SE 4.5 mph - -   Partly Cloudy
6:45 AM 64.4 °F - 62.6 °F 94% 29.86 in - SSE 6.9 mph - N/A   Clear
7:00 AM 72 °F - 64 °F 71% 29.85 in 19 mi South 4.5 mph - -   Partly Cloudy
7:15 AM 68.0 °F - 62.6 °F 83% 29.86 in - SSE 6.9 mph - N/A   Clear
7:45 AM 66.2 °F - 62.6 °F 88% 29.86 in 6.2 mi SSE 4.6 mph - N/A   Partly Cloudy
8:00 AM 67 °F - 63 °F 83% 29.85 in 19 mi SSE 4.5 mph - -   Partly Cloudy
8:15 AM 68.0 °F - 64.4 °F 88% 29.86 in 6.2 mi SSE 5.8 mph - N/A   Partly Cloudy
8:45 AM 71.6 °F - 64.4 °F 78% 29.86 in 6.2 mi South 5.8 mph - N/A   Partly Cloudy
9:00 AM 72 °F - 64 °F 71% 29.85 in 19 mi South 4.5 mph - -   Partly Cloudy
9:15 AM 73.4 °F - 64.4 °F 73% 29.86 in 6.2 mi SSE 5.8 mph - N/A   Partly Cloudy
9:45 AM 77.0 °F - 64.4 °F 65% 29.86 in - SW 3.5 mph - N/A   Clear
10:00 AM 76 °F - 64 °F 57% 29.85 in 19 mi SW 4.5 mph - -   Partly Cloudy
10:15 AM 78.8 °F - 62.6 °F 57% 29.86 in - South 2.3 mph - N/A   Clear
10:45 AM 78.8 °F - 62.6 °F 57% 29.86 in 6.2 mi SSW 3.5 mph - N/A   Partly Cloudy
11:00 AM 69 °F - 63 °F 75% 29.83 in 6 mi East 11.2 mph - - Rain , Thunderstorm Thunderstorms and Rain
11:15 AM 80.6 °F 82.3 °F 64.4 °F 58% 29.86 in 6.2 mi South 3.5 mph - N/A   Partly Cloudy
11:45 AM 80.6 °F 82.3 °F 64.4 °F 58% 29.86 in 6.2 mi SSE 4.6 mph - N/A   Partly Cloudy
12:00 PM 81 °F - 64 °F 46% 29.84 in 16 mi SSE 4.5 mph - -   Partly Cloudy
12:15 PM 82.4 °F 83.9 °F 64.4 °F 54% 29.86 in 6.2 mi SE 4.6 mph - N/A   Scattered Clouds
12:40 PM 82.4 °F 83.9 °F 64.4 °F 54% 29.83 in 6.2 mi SSW 3.5 mph - N/A Thunderstorm Thunderstorm
12:45 PM 82.4 °F 83.9 °F 64.4 °F 54% 29.83 in 6.2 mi SSW 3.5 mph - N/A Thunderstorm Thunderstorm
12:47 PM 80.6 °F 81.8 °F 62.6 °F 54% 29.83 in 6.2 mi SW 4.6 mph - N/A Rain , Thunderstorm Thunderstorms and Rain
1:00 PM 82 °F - 64 °F 44% 29.82 in 9 mi SSW 4.5 mph - - Thunderstorm Thunderstorm
1:14 PM 69.8 °F - 62.6 °F 78% 29.86 in 0.4 mi West 12.7 mph - N/A Rain , Thunderstorm Thunderstorms and Rain
1:15 PM 73.4 °F - 66.2 °F 78% 29.86 in 1.1 mi WSW 11.5 mph - N/A Rain , Thunderstorm Thunderstorms and Rain
1:45 PM 68.0 °F - 62.6 °F 83% 29.83 in 6.2 mi East 11.5 mph - N/A Rain , Thunderstorm Thunderstorms and Rain
2:00 PM 69 °F - 63 °F 75% 29.83 in 6 mi East 11.2 mph - - Rain , Thunderstorm Thunderstorms and Rain
2:15 PM 68.0 °F - 60.8 °F 78% 29.86 in 5.0 mi SSE 10.4 mph 21.9 mph N/A Thunderstorm Thunderstorm
2:45 PM 71.6 °F - 60.8 °F 69% 29.89 in 6.2 mi SSE 3.5 mph - N/A Thunderstorm Thunderstorm
3:00 PM 71 °F - 62 °F 64% 29.86 in 9 mi SSE 2.2 mph - - Thunderstorm Thunderstorm
3:15 PM 75.2 °F - 62.6 °F 65% 29.89 in 6.2 mi SSE 6.9 mph - N/A   Scattered Clouds
3:45 PM 77.0 °F - 62.6 °F 61% 29.86 in 6.2 mi South 3.5 mph - N/A   Mostly Cloudy
4:00 PM 78 °F - 62 °F 49% 29.86 in 16 mi South 2.2 mph - - Thunderstorm Light Thunderstorm
4:15 PM 78.8 °F - 62.6 °F 57% 29.86 in 6.2 mi SW 3.5 mph - N/A   Mostly Cloudy
4:45 PM 80.6 °F 81.8 °F 62.6 °F 54% 29.86 in 6.2 mi WSW 3.5 mph - N/A   Mostly Cloudy
5:00 PM 74 °F - 58 °F 47% 29.89 in 22 mi NW 11.2 mph - -   Partly Cloudy
5:15 PM 77.0 °F - 59.0 °F 54% 29.86 in 6.2 mi NW 13.8 mph - N/A   Partly Cloudy
5:45 PM 77.0 °F - 57.2 °F 50% 29.86 in - NW 13.8 mph - N/A   Clear
6:15 PM 77.0 °F - 57.2 °F 50% 29.86 in 6.2 mi NW 13.8 mph - N/A   Partly Cloudy
6:45 PM 77.0 °F - 57.2 °F 50% 29.89 in 6.2 mi NNW 11.5 mph - N/A   Partly Cloudy
7:15 PM 75.2 °F - 57.2 °F 53% 29.89 in 6.2 mi NW 15.0 mph - N/A   Partly Cloudy
7:45 PM 73.4 °F - 57.2 °F 57% 29.89 in - NW 10.4 mph - N/A   Clear
8:00 PM 74 °F - 58 °F 47% 29.89 in 22 mi NW 11.2 mph - -   Partly Cloudy
8:15 PM 71.6 °F - 59.0 °F 64% 29.92 in - NW 6.9 mph - N/A   Clear
8:45 PM 68.0 °F - 59.0 °F 73% 29.92 in - WNW 6.9 mph - N/A   Clear
9:00 PM 69 °F - 58 °F 61% 29.91 in 19 mi WNW 6.7 mph - -   Partly Cloudy
9:15 PM 68.0 °F - 57.2 °F 68% 29.92 in - WNW 8.1 mph - N/A   Clear
9:45 PM 66.2 °F - 55.4 °F 68% 29.95 in - WNW 6.9 mph - N/A   Clear
10:00 PM 66 °F - 56 °F 62% 29.94 in 19 mi WNW 6.7 mph - -   Partly Cloudy
10:45 PM 62.6 °F - 55.4 °F 77% 29.95 in - West 5.8 mph - N/A   Clear
11:00 PM 60 °F - 50 °F 60% 29.98 in 19 mi WNW 8.9 mph - -   Partly Cloudy
11:45 PM 64.4 °F - 51.8 °F 64% 29.98 in - WNW 6.9 mph - N/A   Clear